N7NKE Weather Reports


time (UTC)temp
C
wind
direction
speed
KPH
gust
KPH
rain 1hr
cm
rain 24hr
cm
rain mn
cm
humidity
%
barometer
mb
20260505070504 12 194 1.6 3.2 0.00 0.00 0.00 85 1012.9
20260505070004 12 241 1.6 3.2 0.00 0.00 0.00 85 1012.8
20260505065504 12 241 1.6 3.2 0.00 0.00 0.00 84 1012.7
20260505065004 12 233 3.2 3.2 0.00 0.00 0.00 84 1012.7
20260505064505 12 183 1.6 3.2 0.00 0.00 0.00 83 1012.7
20260505064004 13 183 1.6 3.2 0.00 0.00 0.00 82 1012.7
20260505063504 13 173 1.6 3.2 0.00 0.00 0.00 82 1012.7
20260505063004 13 209 1.6 3.2 0.00 0.00 0.00 82 1012.6
20260505062504 13 209 1.6 1.6 0.00 0.00 0.00 82 1012.5
20260505062005 13 209 1.6 3.2 0.00 0.00 0.00 82 1012.3
20260505061504 13 209 3.2 3.2 0.00 0.00 0.00 82 1012.2
20260505060504 13 194 1.6 3.2 0.00 0.00 0.00 81 1012.1
20260505055504 14 232 0.0 3.2 0.00 0.00 0.00 80 1012.1
20260505055004 14 139 1.6 3.2 0.00 0.00 0.00 80 1012.2
20260505054504 14 307 0.0 4.8 0.00 0.00 0.00 80 1012.1
20260505054004 14 9 1.6 4.8 0.00 0.00 0.00 80 1012.1
20260505053505 15 208 0.0 3.2 0.00 0.00 0.00 80 1012.1
20260505052504 15 114 1.6 4.8 0.00 0.00 0.00 79 1012.0
20260505052005 15 161 3.2 4.8 0.00 0.00 0.00 79 1012.0
20260505051504 15 180 0.0 1.6 0.00 0.00 0.00 77 1012.0
20260505051004 15 277 3.2 8.0 0.00 0.00 0.00 78 1011.9
20260505050504 15 331 1.6 3.2 0.00 0.00 0.00 78 1011.8
20260505041504 17 85 1.6 3.2 0.00 0.00 0.00 71 1011.3
20260505041004 18 55 1.6 4.8 0.00 0.00 0.00 69 1011.2
20260505040504 18 132 1.6 3.2 0.00 0.00 0.00 68 1011.0
20260505040005 18 182 1.6 4.8 0.00 0.00 0.00 67 1010.9
20260505035505 18 279 1.6 3.2 0.00 0.00 0.00 66 1010.8
20260505035005 19 325 1.6 3.2 0.00 0.00 0.00 65 1010.8
20260505034506 19 322 1.6 3.2 0.00 0.00 0.00 63 1010.8
20260505034006 19 34 1.6 3.2 0.00 0.00 0.00 63 1010.7
20260505033505 20 108 1.6 3.2 0.00 0.00 0.00 62 1010.5
20260505033007 20 333 1.6 3.2 0.00 0.00 0.00 62 1010.5
20260505032505 20 317 3.2 8.0 0.00 0.00 0.00 62 1010.4
20260505032005 20 354 1.6 3.2 0.00 0.00 0.00 62 1010.3
20260505031006 20 0 1.6 3.2 0.00 0.00 0.00 62 1010.2
20260505030505 20 263 1.6 9.7 0.00 0.00 0.00 62 1010.2
20260505030006 21 277 1.6 3.2 0.00 0.00 0.00 62 1010.1
20260505025005 21 278 1.6 4.8 0.00 0.00 0.00 62 1010.1
20260505024505 22 284 1.6 11.3 0.00 0.00 0.00 59 1010.0
20260505024006 22 272 3.2 11.3 0.00 0.00 0.00 60 1010.0
20260505023006 23 201 9.7 16.1 0.00 0.00 0.00 57 1009.8
20260505022505 23 201 8.0 12.9 0.00 0.00 0.00 57 1009.8
20260505022005 23 227 4.8 12.9 0.00 0.00 0.00 56 1009.8
20260505021507 23 218 4.8 11.3 0.00 0.00 0.00 56 1009.8
20260505021005 23 201 4.8 11.3 0.00 0.00 0.00 56 1009.8
20260505020505 23 203 8.0 11.3 0.00 0.00 0.00 58 1009.8
20260505020006 23 202 4.8 11.3 0.00 0.00 0.00 57 1009.8
20260505015505 24 166 6.4 12.9 0.00 0.00 0.00 56 1009.7
20260505015005 24 193 6.4 14.5 0.00 0.00 0.00 56 1009.7
20260505014506 24 196 8.0 14.5 0.00 0.00 0.00 56 1009.7
20260505014005 24 190 9.7 16.1 0.00 0.00 0.00 56 1009.7
20260505012005 25 167 9.7 16.1 0.00 0.00 0.00 56 1009.7
20260505011507 25 184 11.3 16.1 0.00 0.00 0.00 55 1009.8
20260505011005 25 211 11.3 16.1 0.00 0.00 0.00 56 1009.8
20260505010505 25 200 9.7 19.3 0.00 0.00 0.00 56 1009.8
20260505010005 25 213 8.0 20.9 0.00 0.00 0.00 57 1009.8
20260505005505 25 172 11.3 20.9 0.00 0.00 0.00 55 1009.9
20260505005005 25 204 6.4 12.9 0.00 0.00 0.00 55 1009.9
20260505003505 25 193 14.5 20.9 0.00 0.00 0.00 56 1009.9
20260505002505 25 182 8.0 16.1 0.00 0.00 0.00 56 1010.0
20260505002005 25 197 8.0 20.9 0.00 0.00 0.00 58 1009.9
20260505001506 25 186 12.9 25.7 0.00 0.00 0.00 57 1010.0
20260505000505 25 200 12.9 22.5 0.00 0.00 0.00 57 1010.1
20260505000005 25 145 14.5 27.4 0.00 0.00 0.00 56 1010.2
20260504235505 25 194 12.9 20.9 0.00 0.00 0.00 56 1010.2
20260504235005 25 195 11.3 22.5 0.00 0.00 0.00 56 1010.1
20260504234005 25 182 11.3 22.5 0.00 0.00 0.00 56 1010.1
20260504233505 25 187 9.7 19.3 0.00 0.00 0.00 55 1010.2
20260504233006 25 186 12.9 19.3 0.00 0.00 0.00 56 1010.2
20260504232505 25 194 9.7 20.9 0.00 0.00 0.00 55 1010.2
20260504232005 25 186 8.0 20.9 0.00 0.00 0.00 56 1010.3
20260504231505 25 179 14.5 22.5 0.00 0.00 0.00 57 1010.3
20260504231005 25 159 8.0 19.3 0.00 0.00 0.00 58 1010.4
20260504230505 24 185 14.5 25.7 0.00 0.00 0.00 58 1010.4
20260504225505 24 172 8.0 22.5 0.00 0.00 0.00 58 1010.5
20260504225005 24 156 11.3 27.4 0.00 0.00 0.00 58 1010.6
20260504224505 24 165 11.3 20.9 0.00 0.00 0.00 57 1010.7
20260504224005 24 159 11.3 19.3 0.00 0.00 0.00 56 1010.8
20260504223505 23 162 11.3 25.7 0.00 0.00 0.00 60 1010.8
20260504223006 23 167 16.1 22.5 0.00 0.00 0.00 57 1010.9
20260504222505 23 208 8.0 16.1 0.00 0.00 0.00 61 1010.9
20260504221505 23 162 9.7 25.7 0.00 0.00 0.00 60 1011.0
20260504221005 23 161 14.5 20.9 0.00 0.00 0.00 58 1011.0
20260504220005 23 183 8.0 14.5 0.00 0.00 0.00 60 1011.2
20260504215505 23 174 9.7 25.7 0.00 0.00 0.00 59 1011.2
20260504215005 23 142 8.0 20.9 0.00 0.00 0.00 58 1011.3
20260504214505 23 200 8.0 20.9 0.00 0.00 0.00 60 1011.3
20260504213505 22 132 9.7 20.9 0.00 0.00 0.00 60 1011.5
20260504212005 22 203 8.0 19.3 0.00 0.00 0.00 61 1011.6
20260504211505 22 258 4.8 19.3 0.00 0.00 0.00 60 1011.7
20260504210505 22 193 14.5 25.7 0.00 0.00 0.00 60 1012.1
20260504210005 21 143 8.0 12.9 0.00 0.00 0.00 62 1012.1
20260504205505 21 208 6.4 19.3 0.00 0.00 0.00 62 1012.2
20260504205005 21 166 9.7 16.1 0.00 0.00 0.00 63 1012.3
20260504204505 21 184 9.7 12.9 0.00 0.00 0.00 62 1012.4
20260504204005 21 132 12.9 20.9 0.00 0.00 0.00 61 1012.4
20260504203505 21 180 4.8 14.5 0.00 0.00 0.00 63 1012.4
20260504203005 21 153 9.7 16.1 0.00 0.00 0.00 64 1012.4
20260504202505 21 124 8.0 16.1 0.00 0.00 0.00 64 1012.5
20260504202005 20 124 9.7 16.1 0.00 0.00 0.00 66 1012.6
20260504201505 20 121 8.0 16.1 0.00 0.00 0.00 63 1012.6
20260504201005 20 168 11.3 16.1 0.00 0.00 0.00 63 1012.6
20260504200505 20 196 6.4 19.3 0.00 0.00 0.00 65 1012.7
20260504200005 20 124 11.3 16.1 0.00 0.00 0.00 64 1012.8
20260504195506 20 193 9.7 16.1 0.00 0.00 0.00 65 1012.7
20260504194505 19 199 4.8 12.9 0.00 0.00 0.00 67 1012.8
20260504194005 19 166 6.4 11.3 0.00 0.00 0.00 65 1012.8
20260504193505 19 158 4.8 12.9 0.00 0.00 0.00 66 1013.0
20260504193005 19 144 6.4 12.9 0.00 0.00 0.00 67 1013.0
20260504192505 18 171 4.8 11.3 0.00 0.00 0.00 67 1013.1
20260504192005 18 156 6.4 14.5 0.00 0.00 0.00 67 1013.1
20260504191505 18 186 8.0 14.5 0.00 0.00 0.00 68 1013.1
20260504191006 18 146 9.7 16.1 0.00 0.00 0.00 67 1013.3
20260504190505 18 167 4.8 14.5 0.00 0.00 0.00 67 1013.3
20260504185505 18 204 8.0 16.1 0.00 0.00 0.00 69 1013.4
20260504185005 18 146 14.5 19.3 0.00 0.00 0.00 68 1013.5
20260504184505 18 187 9.7 19.3 0.00 0.00 0.00 70 1013.5
20260504184005 17 191 9.7 16.1 0.00 0.00 0.00 70 1013.5
20260504183504 17 210 9.7 16.1 0.00 0.00 0.00 72 1013.5
20260504183005 17 211 4.8 12.9 0.00 0.00 0.00 71 1013.4
20260504182505 17 118 14.5 20.9 0.00 0.00 0.00 71 1013.5
20260504181005 17 209 6.4 20.9 0.00 0.00 0.00 70 1013.4
20260504180504 17 190 8.0 19.3 0.00 0.00 0.00 71 1013.5
20260504180006 17 168 12.9 19.3 0.00 0.00 0.00 72 1013.5
20260504175505 17 195 4.8 14.5 0.00 0.00 0.00 71 1013.5
20260504175005 17 180 9.7 16.1 0.00 0.00 0.00 72 1013.5
20260504174505 17 183 8.0 19.3 0.00 0.00 0.00 72 1013.5
20260504173505 17 210 11.3 20.9 0.00 0.00 0.00 72 1013.5
20260504173005 16 170 8.0 16.1 0.00 0.00 0.00 74 1013.5
20260504172505 16 151 11.3 19.3 0.00 0.00 0.00 72 1013.5
20260504171505 16 153 8.0 20.9 0.00 0.00 0.00 73 1013.3
20260504171005 16 191 8.0 19.3 0.00 0.00 0.00 74 1013.2
20260504170505 16 196 9.7 19.3 0.00 0.00 0.00 74 1013.3
20260504150505 13 0 4.8 16.1 0.00 0.00 0.00 83 1012.8
20260504141004 12 210 8.0 19.3 0.00 0.00 0.00 86 1012.4
20260504140505 12 197 8.0 19.3 0.00 0.00 0.00 86 1012.3
20260504130504 12 202 8.0 22.5 0.00 0.00 0.00 85 1011.2
20260504110505 15 198 14.5 22.5 0.00 0.00 0.00 76 1009.4
20260504100504 15 199 6.4 11.3 0.00 0.00 0.00 75 1008.7
20260504082005 18 182 3.2 4.8 0.00 0.00 0.00 62 1008.2
20260504081505 19 166 1.6 3.2 0.00 0.00 0.00 60 1008.1
20260504081005 20 168 3.2 4.8 0.00 0.00 0.00 59 1008.1